sat.trackr.live / text

‹ back to catalog

FLOCK 4H-7

NORAD 66710 · 2025-276AW

PAYLOAD ACTIVE UNKNOWN

§ Identity

Operator
Country
US
Launch date
2025-11-28
Launch site
AFWTR
Launch vehicle
Mass (kg)
RCS (m²)

Purposes: earth_obs

External: N2YO · Heavens-Above · Gunter

§ Orbital elements

Epoch: 2026-05-25T03:34:55.521408Z

Period
94.75 min
Inclination
97.4191°
Eccentricity
0.0003935
Mean motion
15.19734008 rev/d
Perigee alt
503.9 km
Apogee alt
509.4 km
Semi-major
6,884.8 km
B*
2.8807e-4
RAAN
219.0582°
Arg perigee
106.2388°
Mean anomaly
253.9280°
Rev number
2,692

§ Raw data

FLOCK 4H-71 66710U 25276AW  26145.14925372  .00006091  00000+0  28807-3 0  99962 66710  97.4191 219.0582 0003935 106.2388 253.9280 15.19734008 26924

JSON: /api/v1/satellites/66710 · /tle

For live sub-satellite position, see the globe view (requires WebGL).

§ Visibility from observer

Set your observer location to see the next 7 days of passes ≥ 10°. The values pass through the URL so the page stays shareable.

No JS? Fill the form by hand. The geolocation button needs JavaScript.